Home   Weather   Bülach   Past weeks

Flag for Switzerland Past Weather in Bülach, Zurich, Switzerland — Yesterday and Last 2 Weeks

Now
42 °F

Quite cool.


Feels Like: 35 °F
Forecast: 34 / 40 °F
Wind: 15 mph from West

Location: Zurich-Kloten

Current Time: Jan 19, 2018 at 1:14:43 pm

Latest Report: Jan 19, 2018 at 5:00 am


Visibility: N/A

Pressure: 29.83 "Hg

Humidity: 83%

Dew Point: 37 °F

Location of BülachLocation

Past Weather in Bülach — Graph

°F

Bülach Temperature Yesterday

Maximum temperature yesterday: 45 °F (at 4:00 pm)
Minimum temperature yesterday: 35 °F (at 1:00 am)
Average temperature yesterday: 40 °F

High & Low Weather Summary for the Past Weeks

 TemperatureHumidityPressure
High54 °F (Jan 5, 4:00 pm)100% (Jan 6, 6:00 am)30.30 "Hg (Jan 6, 6:00 am)
Low22 °F (Jan 14, 6:00 am)61% (Jan 15, 3:00 pm)29.57 "Hg (Jan 17, 1:00 am)
Average40 °F85%29.95 "Hg
* Reported Jan 4 8:00 am — Jan 19 8:00 am, Bülach. Weather by CustomWeather, © 2018

Note: Actual official high and low records may vary slightly from our data, if they occured in-between our weather recording intervals... More about our weather records

Advertising

Bülach Weather History for the Previous 24 Hours

Scroll right to see more
 ConditionsComfort  
Time TempWeatherWind HumidityBarometerVisibility
8:00 am
Fri, Jan 19
39 °FChilly.12 mph85%29.94 "HgN/A
5:00 am42 °FQuite cool.15 mph83%29.83 "HgN/A
4:00 am42 °FRain. Overcast.9 mph87%29.81 "Hg6 mi
3:00 am42 °FQuite cool.16 mph85%29.83 "HgN/A
2:00 am43 °FQuite cool.18 mph85%29.81 "HgN/A
1:00 am44 °FRain. Overcast.15 mph89%29.78 "Hg5 mi
12:00 am44 °FQuite cool.14 mph87%29.78 "HgN/A
11:00 pm
Thu, Jan 18
44 °FQuite cool.18 mph87%29.77 "HgN/A
10:00 pm44 °FLight rain. Overcast.20 mph84%29.78 "Hg9 mi
9:00 pm44 °FQuite cool.23 mph84%29.78 "HgN/A
8:00 pm44 °FQuite cool.22 mph76%29.77 "HgN/A
7:00 pm44 °FOvercast.25 mph78%29.79 "Hg9 mi
6:00 pm44 °FQuite cool.23 mph78%29.80 "HgN/A
5:00 pm44 °FQuite cool.24 mph78%29.80 "HgN/A
4:00 pm45 °FOvercast.24 mph75%29.80 "Hg16 mi
3:00 pm44 °FQuite cool.23 mph76%29.82 "HgN/A
2:00 pm44 °FQuite cool.23 mph75%29.84 "HgN/A
1:00 pm42 °FOvercast.20 mph78%29.88 "Hg16 mi
Weather by CustomWeather, © 2018

See weather overview